Meath Environmental Platform

Observations for Trim Market St

Time AQI Temp °C Hum % Pres Pa CO μg/m³ H₂S μg/m³ NO μg/m³ NO₂ μg/m³ O₃ μg/m³ SO₂ μg/m³ PM1 μg/m³ PM2.5 μg/m³ PM10 μg/m³
Sunday 23 August 2026
05:09 2 13.4 70 56,474 0.36 0 2.45 7.15 50.16 0 0.71 3.06 5.02
05:08 2 13.4 70 56,431 0.35 0 2.57 7.27 50.36 0 1.43 3.06 5.02
05:07 2 13.4 70 56,390 0.36 0 2.56 7.92 49.77 0 0 1.6 3.14
05:06 2 13.4 70 56,358 0.36 0 2.63 7.38 50.13 0 1.43 3.06 5.02
05:05 2 13.4 70 56,331 0.36 0 2.6 7.48 49.56 0 1.43 3.06 5.65
05:04 2 13.4 70 56,320 0.36 0 2.54 7.92 49.02 0 0.71 2.57 4.39
05:03 2 13.4 70 56,317 0.36 0 2.6 8.22 49.07 0 0.71 2.09 3.77
05:02 2 13.4 70 56,333 0.35 0 2.63 8.22 48.92 0 0.71 2.57 5.65
05:01 2 13.4 70 56,358 0.35 0 2.47 8.02 49.79 0 1.43 3.06 5.02
05:00 2 13.4 70 56,390 0.35 0 2.42 11.26 47 0 1.43 2.58 4.39
04:59 2 13.4 70 56,432 0.35 0 2.32 8.34 47.85 0 1.43 2.58 5.65
04:58 2 13.4 70 56,455 0.35 0 2.14 7.84 50.58 0 1.43 2.58 5.02
04:56 2 13.4 70 56,481 0.35 0 2.58 8.23 48.69 0 0.71 3.07 5.01
04:55 2 13.4 70 56,501 0.35 0 2.58 7.84 48.9 0 0.71 2.1 3.75
04:54 2 13.4 70 56,521 0.35 0 2.53 9.78 46.58 0 0.71 3.07 5.01
04:53 2 13.4 70 56,544 0.35 0 2.34 8.34 46.83 0 1.43 3.07 5.01
04:52 2 13.4 70 56,556 0.35 0 2.38 9.27 45.09 0 0.71 2.1 3.75
04:50 2 13.4 70 56,568 0.36 0 2.4 7.75 49.42 0 0.71 2.59 5.64
04:49 2 13.4 70 56,562 0.35 0 2.57 7.94 48.71 0 0.71 2.59 4.38
04:48 2 13.5 70 56,556 0.35 0 2.8 7.88 49.2 0 0.71 3.07 5.01